Location: Newark
(51.5306°N, 0.2243°W)
Time: 03:57:08
(UTC+00:00)

N. Korean satellite - Visible Passes

Search period start: 22 September 2019 00:00
Search period end: 02 October 2019 00:00
Orbit: 455 x 509 km, 97.2° (Epoch: 21 September)

Date Brightness Start Highest point End Pass type
(mag) Time Alt. Az. Time Alt. Az. Time Alt. Az.
24 Sep 10.3 04:52:50 10° ENE 04:54:00 11° E 04:55:09 10° ESE visible
27 Sep 9.8 05:09:28 10° NE 05:11:51 17° E 05:14:15 10° SE visible
30 Sep 9.1 05:26:40 10° NE 05:29:39 27° E 05:32:39 10° SSE visible
01 Oct 9.9 05:02:09 10° NE 05:04:13 15° E 05:06:17 10° SE visible
